| time (UTC) | temp C | wind direction | speed KPH | gust KPH | rain 1hr cm | rain 24hr cm | rain mn cm | humidity % | barometer mb |
| 20260502195829 | 16 | 273 | 3.2 | 11.3 | 0.00 | 0.00 | 0.00 | 56 | 1008.9 |
| 20260502195349 | 16 | 273 | 3.2 | 12.9 | 0.00 | 0.00 | 0.00 | 56 | 1008.9 |
| 20260502194829 | 16 | 255 | 6.4 | 12.9 | 0.00 | 0.00 | 0.00 | 55 | 1009.0 |
| 20260502194330 | 17 | 289 | 3.2 | 12.9 | 0.00 | 0.00 | 0.00 | 55 | 1009.0 |
| 20260502193831 | 17 | 299 | 3.2 | 12.9 | 0.00 | 0.00 | 0.00 | 55 | 1009.0 |
| 20260502193331 | 17 | 283 | 4.8 | 12.9 | 0.00 | 0.00 | 0.00 | 55 | 1009.0 |
| 20260502192839 | 17 | 265 | 6.4 | 14.5 | 0.00 | 0.00 | 0.00 | 55 | 1009.0 |
| 20260502192328 | 17 | 276 | 4.8 | 24.1 | 0.00 | 0.00 | 0.00 | 55 | 1008.9 |
| 20260502191829 | 17 | 275 | 8.0 | 24.1 | 0.00 | 0.00 | 0.00 | 55 | 1008.9 |
| 20260502191329 | 17 | 288 | 4.8 | 12.9 | 0.00 | 0.00 | 0.00 | 55 | 1008.8 |
| 20260502190829 | 17 | 287 | 6.4 | 14.5 | 0.00 | 0.00 | 0.00 | 55 | 1008.8 |
| 20260502190329 | 17 | 314 | 6.4 | 19.3 | 0.00 | 0.00 | 0.00 | 54 | 1008.8 |
| 20260502185829 | 17 | 275 | 6.4 | 19.3 | 0.00 | 0.00 | 0.00 | 54 | 1008.8 |
| 20260502185330 | 17 | 282 | 8.0 | 16.1 | 0.00 | 0.00 | 0.00 | 53 | 1008.7 |
| 20260502184851 | 18 | 289 | 9.7 | 17.7 | 0.00 | 0.00 | 0.00 | 53 | 1008.7 |
| 20260502184330 | 18 | 284 | 6.4 | 17.7 | 0.00 | 0.00 | 0.00 | 52 | 1008.7 |
| 20260502183830 | 18 | 285 | 6.4 | 17.7 | 0.00 | 0.00 | 0.00 | 51 | 1008.7 |
| 20260502183331 | 18 | 301 | 8.0 | 14.5 | 0.00 | 0.00 | 0.00 | 52 | 1008.7 |
| 20260502182831 | 18 | 286 | 4.8 | 16.1 | 0.00 | 0.00 | 0.00 | 51 | 1008.7 |
| 20260502182331 | 18 | 281 | 8.0 | 16.1 | 0.00 | 0.00 | 0.00 | 50 | 1008.7 |
| 20260502181831 | 18 | 275 | 6.4 | 14.5 | 0.00 | 0.00 | 0.00 | 50 | 1008.7 |
| 20260502181330 | 18 | 288 | 6.4 | 16.1 | 0.00 | 0.00 | 0.00 | 49 | 1008.7 |
| 20260502180829 | 18 | 273 | 8.0 | 22.5 | 0.00 | 0.00 | 0.00 | 49 | 1008.7 |
| 20260502180329 | 18 | 277 | 9.7 | 22.5 | 0.00 | 0.00 | 0.00 | 48 | 1008.7 |
| 20260502170335 | 20 | 310 | 16.1 | 27.4 | 0.00 | 0.00 | 0.00 | 42 | 1008.6 |
| 20260502164347 | 21 | 286 | 14.5 | 30.6 | 0.00 | 0.00 | 0.00 | 40 | 1008.8 |
| 20260502163824 | 21 | 209 | 14.5 | 30.6 | 0.00 | 0.00 | 0.00 | 40 | 1008.7 |
| 20260502163346 | 21 | 269 | 19.3 | 30.6 | 0.00 | 0.00 | 0.00 | 40 | 1008.7 |
| 20260502162824 | 21 | 313 | 14.5 | 25.7 | 0.00 | 0.00 | 0.00 | 39 | 1008.7 |
| 20260502162352 | 22 | 284 | 11.3 | 24.1 | 0.00 | 0.00 | 0.00 | 40 | 1008.7 |
| 20260502161851 | 22 | 271 | 11.3 | 25.7 | 0.00 | 0.00 | 0.00 | 38 | 1008.7 |
| 20260502161359 | 22 | 279 | 14.5 | 25.7 | 0.00 | 0.00 | 0.00 | 38 | 1008.7 |
| 20260502160828 | 22 | 288 | 11.3 | 22.5 | 0.00 | 0.00 | 0.00 | 39 | 1008.7 |
| 20260502160328 | 22 | 283 | 14.5 | 22.5 | 0.00 | 0.00 | 0.00 | 37 | 1008.7 |
| 20260502151829 | 23 | 299 | 12.9 | 25.7 | 0.00 | 0.00 | 0.00 | 38 | 1009.1 |
| 20260502151328 | 23 | 280 | 12.9 | 22.5 | 0.00 | 0.00 | 0.00 | 37 | 1009.2 |
| 20260502150829 | 23 | 303 | 12.9 | 27.4 | 0.00 | 0.00 | 0.00 | 37 | 1009.2 |
| 20260502150329 | 23 | 277 | 16.1 | 27.4 | 0.00 | 0.00 | 0.00 | 36 | 1009.4 |
| 20260502130326 | 25 | 275 | 9.7 | 25.7 | 0.00 | 0.00 | 0.00 | 33 | 1010.2 |
| 20260502123331 | 24 | 42 | 8.0 | 35.4 | 0.00 | 0.00 | 0.00 | 34 | 1010.6 |
| 20260502122852 | 25 | 201 | 6.4 | 19.3 | 0.00 | 0.00 | 0.00 | 34 | 1010.7 |
| 20260502122329 | 25 | 294 | 8.0 | 32.2 | 0.00 | 0.00 | 0.00 | 34 | 1010.8 |
| 20260502121851 | 24 | 79 | 9.7 | 32.2 | 0.00 | 0.00 | 0.00 | 34 | 1010.9 |
| 20260502121330 | 24 | 203 | 8.0 | 17.7 | 0.00 | 0.00 | 0.00 | 37 | 1010.8 |
| 20260502120858 | 24 | 289 | 6.4 | 19.3 | 0.00 | 0.00 | 0.00 | 36 | 1011.0 |
| 20260502120324 | 24 | 257 | 8.0 | 17.7 | 0.00 | 0.00 | 0.00 | 37 | 1011.1 |
| 20260502115832 | 23 | 304 | 6.4 | 25.7 | 0.00 | 0.00 | 0.00 | 36 | 1011.2 |
| 20260502115339 | 23 | 5 | 9.7 | 25.7 | 0.00 | 0.00 | 0.00 | 35 | 1011.3 |
| 20260502114828 | 23 | 282 | 8.0 | 25.7 | 0.00 | 0.00 | 0.00 | 38 | 1011.3 |
| 20260502114350 | 23 | 55 | 11.3 | 27.4 | 0.00 | 0.00 | 0.00 | 37 | 1011.4 |
| 20260502113828 | 23 | 160 | 9.7 | 22.5 | 0.00 | 0.00 | 0.00 | 37 | 1011.5 |
| 20260502113329 | 23 | 263 | 8.0 | 24.1 | 0.00 | 0.00 | 0.00 | 38 | 1011.5 |
| 20260502112829 | 23 | 297 | 4.8 | 24.1 | 0.00 | 0.00 | 0.00 | 41 | 1011.6 |
| 20260502112330 | 23 | 202 | 6.4 | 25.7 | 0.00 | 0.00 | 0.00 | 38 | 1011.8 |
| 20260502111830 | 23 | 309 | 6.4 | 25.7 | 0.00 | 0.00 | 0.00 | 39 | 1011.9 |
| 20260502111331 | 23 | 304 | 8.0 | 22.5 | 0.00 | 0.00 | 0.00 | 40 | 1012.0 |
| 20260502110851 | 23 | 27 | 6.4 | 33.8 | 0.00 | 0.00 | 0.00 | 39 | 1012.4 |
| 20260502110350 | 23 | 202 | 12.9 | 33.8 | 0.00 | 0.00 | 0.00 | 39 | 1012.2 |
| 20260502105828 | 23 | 194 | 9.7 | 22.5 | 0.00 | 0.00 | 0.00 | 39 | 1012.3 |
| 20260502105330 | 23 | 194 | 6.4 | 24.1 | 0.00 | 0.00 | 0.00 | 38 | 1012.4 |
| 20260502104851 | 23 | 284 | 3.2 | 24.1 | 0.00 | 0.00 | 0.00 | 41 | 1012.5 |
| 20260502104330 | 23 | 220 | 9.7 | 24.1 | 0.00 | 0.00 | 0.00 | 39 | 1012.5 |
| 20260502103900 | 23 | 307 | 3.2 | 16.1 | 0.00 | 0.00 | 0.00 | 40 | 1012.6 |
| 20260502103329 | 23 | 312 | 4.8 | 17.7 | 0.00 | 0.00 | 0.00 | 39 | 1012.6 |
| 20260502102837 | 23 | 287 | 4.8 | 19.3 | 0.00 | 0.00 | 0.00 | 38 | 1012.7 |
| 20260502102326 | 23 | 222 | 6.4 | 19.3 | 0.00 | 0.00 | 0.00 | 40 | 1012.7 |
| 20260502101853 | 22 | 156 | 4.8 | 25.7 | 0.00 | 0.00 | 0.00 | 41 | 1012.9 |
| 20260502101401 | 22 | 205 | 6.4 | 25.7 | 0.00 | 0.00 | 0.00 | 41 | 1013.0 |
| 20260502100829 | 22 | 302 | 6.4 | 19.3 | 0.00 | 0.00 | 0.00 | 41 | 1013.1 |
| 20260502100337 | 22 | 318 | 6.4 | 20.9 | 0.00 | 0.00 | 0.00 | 41 | 1013.1 |
| 20260502091352 | 21 | 285 | 6.4 | 16.1 | 0.00 | 0.00 | 0.00 | 40 | 1013.5 |
| 20260502090848 | 21 | 246 | 4.8 | 22.5 | 0.00 | 0.00 | 0.00 | 39 | 1013.8 |
| 20260502090336 | 21 | 213 | 6.4 | 22.5 | 0.00 | 0.00 | 0.00 | 40 | 1013.8 |
| 20260502071330 | 17 | 329 | 6.4 | 14.5 | 0.00 | 0.00 | 0.00 | 42 | 1015.0 |
| 20260502070831 | 17 | 296 | 3.2 | 19.3 | 0.00 | 0.00 | 0.00 | 43 | 1015.0 |
| 20260502070331 | 17 | 298 | 4.8 | 19.3 | 0.00 | 0.00 | 0.00 | 43 | 1015.0 |
| 20260502065831 | 16 | 139 | 8.0 | 16.1 | 0.00 | 0.00 | 0.00 | 43 | 1015.0 |
| 20260502065340 | 16 | 286 | 6.4 | 16.1 | 0.00 | 0.00 | 0.00 | 42 | 1015.1 |
| 20260502064829 | 16 | 276 | 6.4 | 19.3 | 0.00 | 0.00 | 0.00 | 43 | 1015.0 |
| 20260502064350 | 16 | 292 | 9.7 | 19.3 | 0.00 | 0.00 | 0.00 | 42 | 1015.0 |
| 20260502063830 | 16 | 225 | 6.4 | 19.3 | 0.00 | 0.00 | 0.00 | 43 | 1015.1 |
| 20260502063331 | 16 | 271 | 4.8 | 19.3 | 0.00 | 0.00 | 0.00 | 43 | 1015.1 |
| 20260502062831 | 15 | 278 | 6.4 | 19.3 | 0.00 | 0.00 | 0.00 | 43 | 1015.1 |
| 20260502062352 | 15 | 288 | 4.8 | 19.3 | 0.00 | 0.00 | 0.00 | 44 | 1015.2 |
| 20260502061851 | 15 | 286 | 4.8 | 14.5 | 0.00 | 0.00 | 0.00 | 44 | 1015.2 |
| 20260502061339 | 15 | 121 | 4.8 | 20.9 | 0.00 | 0.00 | 0.00 | 47 | 1015.2 |
| 20260502060828 | 15 | 288 | 6.4 | 20.9 | 0.00 | 0.00 | 0.00 | 45 | 1015.3 |
| 20260502060328 | 14 | 284 | 6.4 | 16.1 | 0.00 | 0.00 | 0.00 | 47 | 1015.3 |
| 20260502055829 | 14 | 360 | 4.8 | 11.3 | 0.00 | 0.00 | 0.00 | 48 | 1015.4 |
| 20260502055329 | 14 | 318 | 3.2 | 16.1 | 0.00 | 0.00 | 0.00 | 48 | 1015.4 |
| 20260502054830 | 13 | 288 | 4.8 | 12.9 | 0.00 | 0.00 | 0.00 | 49 | 1015.5 |
| 20260502054339 | 13 | 314 | 4.8 | 17.7 | 0.00 | 0.00 | 0.00 | 50 | 1015.4 |
| 20260502053828 | 13 | 317 | 4.8 | 20.9 | 0.00 | 0.00 | 0.00 | 50 | 1015.5 |
| 20260502053329 | 13 | 240 | 6.4 | 20.9 | 0.00 | 0.00 | 0.00 | 49 | 1015.5 |
| 20260502052849 | 13 | 287 | 4.8 | 11.3 | 0.00 | 0.00 | 0.00 | 52 | 1015.4 |
| 20260502052328 | 13 | 245 | 3.2 | 14.5 | 0.00 | 0.00 | 0.00 | 52 | 1015.5 |
| 20260502051828 | 13 | 315 | 4.8 | 14.5 | 0.00 | 0.00 | 0.00 | 52 | 1015.4 |
| 20260502051328 | 13 | 290 | 3.2 | 11.3 | 0.00 | 0.00 | 0.00 | 53 | 1015.4 |
| 20260502050830 | 13 | 315 | 3.2 | 9.7 | 0.00 | 0.00 | 0.00 | 54 | 1015.4 |
| 20260502050330 | 12 | 275 | 3.2 | 11.3 | 0.00 | 0.00 | 0.00 | 53 | 1015.5 |
| 20260502045900 | 12 | 295 | 3.2 | 14.5 | 0.00 | 0.00 | 0.00 | 53 | 1015.5 |
| 20260502045327 | 12 | 269 | 4.8 | 19.3 | 0.00 | 0.00 | 0.00 | 53 | 1015.5 |
| 20260502044857 | 12 | 269 | 3.2 | 19.3 | 0.00 | 0.00 | 0.00 | 54 | 1015.6 |
| 20260502044325 | 12 | 275 | 4.8 | 17.7 | 0.00 | 0.00 | 0.00 | 54 | 1015.5 |
| 20260502043852 | 12 | 294 | 4.8 | 14.5 | 0.00 | 0.00 | 0.00 | 55 | 1015.6 |
| 20260502043332 | 12 | 309 | 3.2 | 12.9 | 0.00 | 0.00 | 0.00 | 55 | 1015.7 |
| 20260502042832 | 12 | 168 | 3.2 | 11.3 | 0.00 | 0.00 | 0.00 | 56 | 1015.7 |
| 20260502042401 | 12 | 281 | 3.2 | 9.7 | 0.00 | 0.00 | 0.00 | 55 | 1015.7 |
| 20260502041829 | 11 | 331 | 3.2 | 14.5 | 0.00 | 0.00 | 0.00 | 55 | 1015.8 |
| 20260502041329 | 11 | 189 | 1.6 | 14.5 | 0.00 | 0.00 | 0.00 | 55 | 1015.8 |
| 20260502040831 | 11 | 265 | 3.2 | 8.0 | 0.00 | 0.00 | 0.00 | 55 | 1015.8 |
| 20260502040339 | 11 | 172 | 3.2 | 12.9 | 0.00 | 0.00 | 0.00 | 55 | 1015.9 |
| 20260502035828 | 11 | 290 | 4.8 | 12.9 | 0.00 | 0.00 | 0.00 | 54 | 1015.9 |
| 20260502035330 | 11 | 167 | 3.2 | 12.9 | 0.00 | 0.00 | 0.00 | 55 | 1015.9 |
| 20260502034839 | 11 | 275 | 3.2 | 12.9 | 0.00 | 0.00 | 0.00 | 54 | 1015.9 |
| 20260502034328 | 11 | 329 | 3.2 | 11.3 | 0.00 | 0.00 | 0.00 | 55 | 1016.0 |
| 20260502033836 | 11 | 355 | 3.2 | 14.5 | 0.00 | 0.00 | 0.00 | 55 | 1016.0 |
| 20260502033325 | 11 | 254 | 4.8 | 14.5 | 0.00 | 0.00 | 0.00 | 54 | 1016.1 |
| 20260502032851 | 11 | 281 | 4.8 | 14.5 | 0.00 | 0.00 | 0.00 | 54 | 1016.2 |
| 20260502032331 | 11 | 298 | 3.2 | 16.1 | 0.00 | 0.00 | 0.00 | 54 | 1016.1 |
| 20260502031839 | 11 | 275 | 3.2 | 16.1 | 0.00 | 0.00 | 0.00 | 54 | 1016.2 |
| 20260502031328 | 11 | 277 | 3.2 | 14.5 | 0.00 | 0.00 | 0.00 | 54 | 1016.2 |
| 20260502030828 | 12 | 264 | 3.2 | 14.5 | 0.00 | 0.00 | 0.00 | 53 | 1016.3 |
| 20260502030329 | 12 | 290 | 3.2 | 14.5 | 0.00 | 0.00 | 0.00 | 53 | 1016.4 |
| 20260502025829 | 12 | 267 | 1.6 | 17.7 | 0.00 | 0.00 | 0.00 | 53 | 1016.3 |
| 20260502025350 | 12 | 219 | 4.8 | 17.7 | 0.00 | 0.00 | 0.00 | 53 | 1016.4 |
| 20260502024840 | 12 | 254 | 4.8 | 14.5 | 0.00 | 0.00 | 0.00 | 53 | 1016.4 |
| 20260502024328 | 12 | 310 | 4.8 | 14.5 | 0.00 | 0.00 | 0.00 | 53 | 1016.5 |
| 20260502023828 | 12 | 256 | 6.4 | 24.1 | 0.00 | 0.00 | 0.00 | 53 | 1016.5 |
| 20260502023329 | 12 | 295 | 6.4 | 24.1 | 0.00 | 0.00 | 0.00 | 53 | 1016.5 |
| 20260502022829 | 12 | 211 | 6.4 | 16.1 | 0.00 | 0.00 | 0.00 | 53 | 1016.5 |
| 20260502022339 | 12 | 282 | 6.4 | 25.7 | 0.00 | 0.00 | 0.00 | 53 | 1016.5 |
| 20260502021828 | 12 | 264 | 9.7 | 25.7 | 0.00 | 0.00 | 0.00 | 53 | 1016.6 |
| 20260502021328 | 12 | 255 | 6.4 | 17.7 | 0.00 | 0.00 | 0.00 | 54 | 1016.6 |
| 20260502020829 | 12 | 204 | 8.0 | 19.3 | 0.00 | 0.00 | 0.00 | 54 | 1016.6 |
| 20260502020330 | 12 | 309 | 6.4 | 19.3 | 0.00 | 0.00 | 0.00 | 55 | 1016.7 |
| 20260502015829 | 12 | 254 | 6.4 | 17.7 | 0.00 | 0.00 | 0.00 | 55 | 1016.8 |
| 20260502015329 | 12 | 235 | 4.8 | 17.7 | 0.00 | 0.00 | 0.00 | 55 | 1016.8 |
| 20260502014829 | 12 | 284 | 4.8 | 16.1 | 0.00 | 0.00 | 0.00 | 56 | 1016.9 |
| 20260502014329 | 12 | 298 | 6.4 | 16.1 | 0.00 | 0.00 | 0.00 | 55 | 1016.9 |
| 20260502013829 | 12 | 271 | 6.4 | 19.3 | 0.00 | 0.00 | 0.00 | 56 | 1017.0 |
| 20260502013330 | 12 | 233 | 6.4 | 19.3 | 0.00 | 0.00 | 0.00 | 56 | 1017.1 |
| 20260502012839 | 12 | 252 | 8.0 | 19.3 | 0.00 | 0.00 | 0.00 | 57 | 1017.2 |
| 20260502012347 | 12 | 299 | 4.8 | 12.9 | 0.00 | 0.00 | 0.00 | 58 | 1017.2 |
| 20260502011835 | 12 | 253 | 4.8 | 8.0 | 0.00 | 0.00 | 0.00 | 58 | 1017.3 |
| 20260502011324 | 12 | 315 | 4.8 | 14.5 | 0.00 | 0.00 | 0.00 | 59 | 1017.3 |
| 20260502010830 | 12 | 258 | 3.2 | 16.1 | 0.00 | 0.00 | 0.00 | 59 | 1017.4 |
| 20260502010331 | 12 | 242 | 3.2 | 14.5 | 0.00 | 0.00 | 0.00 | 59 | 1017.5 |
| 20260502005830 | 12 | 304 | 3.2 | 12.9 | 0.00 | 0.00 | 0.00 | 58 | 1017.5 |
| 20260502005329 | 12 | 288 | 4.8 | 14.5 | 0.00 | 0.00 | 0.00 | 58 | 1017.5 |
| 20260502004829 | 12 | 292 | 4.8 | 14.5 | 0.00 | 0.00 | 0.00 | 58 | 1017.6 |
| 20260502004359 | 12 | 271 | 3.2 | 11.3 | 0.00 | 0.00 | 0.00 | 58 | 1017.7 |
| 20260502003846 | 12 | 311 | 3.2 | 14.5 | 0.00 | 0.00 | 0.00 | 57 | 1017.7 |
| 20260502003332 | 12 | 317 | 4.8 | 14.5 | 0.00 | 0.00 | 0.00 | 57 | 1017.7 |
| 20260502002840 | 12 | 284 | 4.8 | 16.1 | 0.00 | 0.00 | 0.00 | 57 | 1017.7 |
| 20260502002328 | 12 | 119 | 6.4 | 16.1 | 0.00 | 0.00 | 0.00 | 58 | 1017.7 |
| 20260502001837 | 12 | 277 | 4.8 | 20.9 | 0.00 | 0.00 | 0.00 | 58 | 1017.8 |
| 20260502001326 | 12 | 260 | 6.4 | 20.9 | 0.00 | 0.00 | 0.00 | 58 | 1017.9 |
| 20260502000853 | 12 | 287 | 4.8 | 17.7 | 0.00 | 0.00 | 0.00 | 57 | 1018.0 |
| 20260502000333 | 12 | 275 | 4.8 | 16.1 | 0.00 | 0.00 | 0.00 | 57 | 1018.0 |
| 20260501235840 | 12 | 279 | 4.8 | 16.1 | 0.00 | 0.00 | 0.00 | 57 | 1018.0 |
| 20260501235328 | 12 | 265 | 6.4 | 17.7 | 0.00 | 0.00 | 0.00 | 56 | 1018.2 |
| 20260501234829 | 12 | 296 | 9.7 | 17.7 | 0.00 | 0.00 | 0.00 | 56 | 1018.2 |
| 20260501234336 | 12 | 323 | 8.0 | 16.1 | 0.00 | 0.00 | 0.00 | 55 | 1018.2 |
| 20260501233827 | 12 | 287 | 4.8 | 17.7 | 0.00 | 0.00 | 0.00 | 55 | 1018.2 |
| 20260501233332 | 13 | 282 | 8.0 | 20.9 | 0.00 | 0.00 | 0.00 | 54 | 1018.3 |
| 20260501232830 | 13 | 267 | 11.3 | 24.1 | 0.00 | 0.00 | 0.00 | 54 | 1018.4 |
| 20260501232338 | 13 | 308 | 12.9 | 24.1 | 0.00 | 0.00 | 0.00 | 54 | 1018.4 |
| 20260501231846 | 13 | 275 | 9.7 | 24.1 | 0.00 | 0.00 | 0.00 | 54 | 1018.4 |
| 20260501231332 | 13 | 278 | 9.7 | 24.1 | 0.00 | 0.00 | 0.00 | 53 | 1018.5 |
| 20260501230828 | 13 | 279 | 9.7 | 25.7 | 0.00 | 0.00 | 0.00 | 53 | 1018.6 |
| 20260501230328 | 13 | 294 | 12.9 | 25.7 | 0.00 | 0.00 | 0.00 | 53 | 1018.4 |
| 20260501225828 | 13 | 269 | 12.9 | 25.7 | 0.00 | 0.00 | 0.00 | 53 | 1018.5 |
| 20260501225327 | 13 | 267 | 12.9 | 25.7 | 0.00 | 0.00 | 0.00 | 53 | 1018.5 |
| 20260501224836 | 13 | 219 | 11.3 | 19.3 | 0.00 | 0.00 | 0.00 | 53 | 1018.5 |
| 20260501224346 | 13 | 242 | 8.0 | 20.9 | 0.00 | 0.00 | 0.00 | 53 | 1018.5 |
| 20260501223824 | 13 | 265 | 11.3 | 30.6 | 0.00 | 0.00 | 0.00 | 53 | 1018.5 |
| 20260501223333 | 13 | 155 | 8.0 | 30.6 | 0.00 | 0.00 | 0.00 | 53 | 1018.6 |
| 20260501222841 | 13 | 262 | 11.3 | 27.4 | 0.00 | 0.00 | 0.00 | 53 | 1018.7 |
| 20260501222331 | 13 | 269 | 9.7 | 27.4 | 0.00 | 0.00 | 0.00 | 52 | 1018.6 |
| 20260501221841 | 13 | 275 | 11.3 | 19.3 | 0.00 | 0.00 | 0.00 | 52 | 1018.6 |
| 20260501221327 | 13 | 295 | 11.3 | 25.7 | 0.00 | 0.00 | 0.00 | 52 | 1018.6 |
| 20260501220827 | 13 | 246 | 11.3 | 20.9 | 0.00 | 0.00 | 0.00 | 52 | 1018.6 |
| 20260501220330 | 13 | 277 | 14.5 | 22.5 | 0.00 | 0.00 | 0.00 | 52 | 1018.6 |
| 20260501215857 | 13 | 294 | 11.3 | 30.6 | 0.00 | 0.00 | 0.00 | 52 | 1018.6 |
| 20260501215324 | 13 | 251 | 12.9 | 24.1 | 0.00 | 0.00 | 0.00 | 51 | 1018.6 |
| 20260501214825 | 14 | 286 | 14.5 | 24.1 | 0.00 | 0.00 | 0.00 | 51 | 1018.6 |
| 20260501214325 | 14 | 246 | 14.5 | 20.9 | 0.00 | 0.00 | 0.00 | 52 | 1018.7 |
| 20260501213834 | 14 | 300 | 9.7 | 24.1 | 0.00 | 0.00 | 0.00 | 51 | 1018.7 |
| 20260501213340 | 14 | 304 | 11.3 | 25.7 | 0.00 | 0.00 | 0.00 | 51 | 1018.8 |
| 20260501212847 | 14 | 264 | 12.9 | 25.7 | 0.00 | 0.00 | 0.00 | 51 | 1018.7 |
| 20260501212326 | 14 | 284 | 9.7 | 19.3 | 0.00 | 0.00 | 0.00 | 51 | 1018.9 |
| 20260501211834 | 14 | 289 | 11.3 | 20.9 | 0.00 | 0.00 | 0.00 | 51 | 1018.9 |
| 20260501211343 | 14 | 281 | 11.3 | 20.9 | 0.00 | 0.00 | 0.00 | 51 | 1018.9 |
| 20260501210832 | 14 | 320 | 9.7 | 25.7 | 0.00 | 0.00 | 0.00 | 50 | 1018.9 |
| 20260501210340 | 14 | 229 | 9.7 | 25.7 | 0.00 | 0.00 | 0.00 | 50 | 1018.9 |
| 20260501205829 | 15 | 277 | 9.7 | 22.5 | 0.00 | 0.00 | 0.00 | 49 | 1018.9 |
| 20260501205336 | 15 | 268 | 9.7 | 20.9 | 0.00 | 0.00 | 0.00 | 49 | 1018.9 |
| 20260501204824 | 15 | 280 | 8.0 | 19.3 | 0.00 | 0.00 | 0.00 | 49 | 1018.9 |
| 20260501204332 | 15 | 281 | 8.0 | 22.5 | 0.00 | 0.00 | 0.00 | 48 | 1018.9 |
| 20260501203840 | 15 | 308 | 4.8 | 22.5 | 0.00 | 0.00 | 0.00 | 48 | 1018.9 |
| 20260501203328 | 15 | 255 | 8.0 | 22.5 | 0.00 | 0.00 | 0.00 | 49 | 1019.0 |
| 20260501202849 | 15 | 275 | 11.3 | 22.5 | 0.00 | 0.00 | 0.00 | 48 | 1019.0 |
| 20260501202336 | 15 | 240 | 6.4 | 20.9 | 0.00 | 0.00 | 0.00 | 48 | 1019.1 |
| 20260501201824 | 15 | 272 | 9.7 | 20.9 | 0.00 | 0.00 | 0.00 | 47 | 1019.1 |
| 20260501201332 | 15 | 275 | 8.0 | 22.5 | 0.00 | 0.00 | 0.00 | 47 | 1019.1 |
| 20260501200841 | 15 | 275 | 8.0 | 22.5 | 0.00 | 0.00 | 0.00 | 47 | 1019.1 |
| 20260501200349 | 15 | 287 | 8.0 | 27.4 | 0.00 | 0.00 | 0.00 | 48 | 1019.2 |